Showing default

CHINASAT-3A, 60179

Orbit data source: Space-Track

CHINASAT-3A, 60179 is a payload satellite owned by PLA SSF (CN) in GEO that was launched on Sat, 29 Jun 2024 UTC via a CHANG ZHENG 7A launch vehicle from the Wenchang Satellite Launch Center (WSC). Payload-class satellites include a variety of spacecraft equipped with specific instruments for various scientific and technological missions. These include communications satellites like Starlink; space stations such as the ISS; scientific satellites like the Hubble; Earth observation satellites from companies like Planet Labs, Umbra, and HawkEye 360; GPS; miniature CubeSats for education and research; and military/defense satellites.

Not visible in the next 10 days
Identifier
60179, 2024-122A
Orbit
GEO
Country
Flag of CNCN / PRC
Related business
Manufacturer
SISE
Mission
Operational Defense Communications
Bus & Motor
FY-4?, LAE
Mass
~5,000 kg wet, ~2,500 kg dry
Launch date (UTC)
2024-06-29 (2 years ago)
Launch vehicle
CHANG ZHENG 7A
Launch site
Wenchang Satellite Launch Center (WSC)
Object type
Payload
Rocket body
Debris
Shape & HBR
Box + 2 Pan, 15.0 m
Radar Cross Section
34.063 m²

Expand to show TLE details & history
Last TLE update: 8 hours ago

TLE from 8 hours ago
0 CHINASAT-3A
1 60179U 24122A   26254.88668139 -.00000329  00000-0  00000+0 0  9996
2 60179   0.0437 322.1500 0002686 246.5426 202.9717  1.00268950  8178
Epoch: 2026-09-11T21:16Z
TLE epoch observation values (Epoch: 2026-09-11T21:16:49.272Z)
Latitude
-0.01213°
Longitude
101.54472°
Altitude
35,797.295 km
Speed
3.074 km/s
True Right ascension
03h 26m 36s
True Declination
0° 00' 44"
Sunlit
Object was in daylight at epoch
Visualization orbit readout
Latitude
Unknown
Longitude
Unknown
Altitude
Unknown
Speed
Unknown
Apparent Right ascension
Unknown
Apparent Declination
Unknown
Sunlit
N/A
Visualization observer readout
Local Sidereal Time
21:29:35
Azimuth
Unknown
Elevation
Unknown
Doppler factor
Unknown
Orbital elements
Apogee altitude
35,799.786 km
Perigee altitude
35,777.134 km
Semi-major axis
42,166.597 km
Eccentricity
0.00027
Inclination
0.0437°
RAAN
322.15°
Arg. of periapsis
246.5426°
True anomaly
202.95969°
Mean anomaly
202.9717°
Eccentric anomaly
202.9657°
Mean motion
0.25066 °/min
Orbital period
1,436.19 mins
BSTAR
0
Loading maneuver chart data...
Computing Atmospheric mass density...
Loading historical data...
Loading historical data...
Loading historical data...
Loading historical data...
Loading historical data...
Loading historical data...
Loading historical data...
Other satellites on launch #122 in the year 2024 (2024-06-29 UTC)

Documentation

Showing up to 5 results
|